EHI
0 0 0 0 0 0 0 0 0 0 0 0 0 0 0 0 0 0 0 0 0 0 0 0 0 0 0 0 0 0 0 0 0 0 0 0 0 0 0 0 0 0 0
0 0 0 0 0 0 0 0 0 0 0 0 0 0 0 0 0 0 0 0 0 0 0 0 0 0 0 0 0 0 0 0 0 0 0 0 0 0 0 0 0 0 0
0 0 0 0 0 0 0 0 0 0 0 0 0 0 0 0 0 0 0 0 0 0 0 0 0 0 0 0 0 0 0 0 0 0 0 0 0 0 0 0 0 0 0
0 0 0 0 0 0 0 0 0 0 0 0 0 0 0 0 0 0 0 0 0 0 0 0 0 0 0 0 0 0 0 0 0 0 0 0 0 0 0 0 0 0 0
0 0 0 0 0 0 0 0 0 0 0 0 0 0 0 0 0 0 0 0 0 0 0 0 0 0 0 0 0 0 0 0 0 0 0 0 0 0 0 0 0 0 0
0 0 0 0 0 0 0 0 0 0 0 0 0 0 0 0 0 0 0 0 0 0 0 0 0 0 0 0 0 0 0 0 0 0 0 0 0 0 0 0 0 0 0
0 0 0 0 0 0 0 0 0 0 0 0 0 0 0 0 0 0 0 0 0 0 0 0 0 0 0 0 0 0 0 0 0 0 0 0 0 0 0 0 0 0 0
0 0 0 0 0 0 0 0 0 0 0 0 0 0 0 0 0 0 0 0 0 0 0 0 0 0 0 0 0 0 0 0 0 0 0 0 0 0 0 0 0 0 0
0 0 0 0 0 0 0 0 0 0 0 0 0 0 0 0 0 0 0 0 0 0 0 0 0 0 0 0 0 0 0 0 0 0 0 0 0 0 0 0 0 0 0
0 0 0 0 0 0 0 0 0 0 0 0 0 0 0 0 0 0 0 0 0 0 0 0 0 0 0 0 0 0 0 0 0 0 0 0 0 0 0 0 0 0 0
0 0 0 0 0 0 0 0 0 0 0 0 0 0 0 0 0 0 0 0 0 0 0 0 0 0 0 0 0 0 0 0 0 0 0 0 0 0 0 0 0 0 0
0 0 0 0 0 0 0 0 0 0 0 0 0 0 0 0 0 0 0 0 0 0 0 0 0 0 0 0 0 0 0 0 0 0 0 0 0 0 0 0 0 0 0
0 0 0 0 0 0 0 0 0 0 0 0 0 0 0 0 0 0 0 0 0 0 0 0 0 0 0 0 0 0 0 0 0 0 0 0 0 0 0 0 0 0 0
0 0 0 0 0 0 0 0 0 0 0 0 0 0 0 0 0 0 0 0 0 0 0 0 0 0 0 0 0 0 0 0 0 0 0 0 0 0 0 0 0 0 0
0 0 0 0 0 0 0 0 0 0 0 0 0 0 0 0 0 0 0 0 0 0 0 0 0 0 0 0 0 0 0 0 0 0 0 0 0 0 0 0 0 0 0
0 0 0 0 0 0 0 0 0 0 0 0 0 0 0 0 0 0 0 0 0 0 0 0 0 0 0 0 0 0 0 0 0 0 0 0 0 0 0 0 0 0 0
0 0 0 0 0 0 0 0 0 0 0 0 0 0 0 0 0 0 0 0 0 0 0 0 0 0 0 0 0 0 0 0 0 0 0 0 0 0 0 0 0 0 0
0 0 0 0 0 0 0 0 0 0 0 0 0 0 0 0 0 0 0 0 0 0 0 0 0 0 0 0 0 0 0 0 0 0 0 0 0 0 0 0 0 0 0
0 0 0 0 0 0 0 0 0 0 0 0 0 0 0 0 0 0 0 0 0 0 0 0 0 0 0 0 0 0 0 0 0 0 0 0 0 0 0 0 0 0 0
0 0 0 0 0 0 0 0 0 0 0 0 0 0 0 0 0 0 0 0 0 0 0 0 0 0 0 0 0 0 0 0 0 0 0 0 0 0 0 0 0 0 0
0 0 0 0 0 0 0 0 0 0 0 0 0 0 0 0 0 0 0 0 0 0 0 0 0 0 0 0 0 0 0 0 0 0 0 0 0 0 0 0 0 0 0
0 0 0 0 0 0 0 0 0 0 0 0 0 0 0 0 0 0 0 0 0 0 0 0 0 0 0 0 0 0 0 0 0 0 0 0 0 0 0 0 0 0 0
0 0 0 0 0 0 0 0 0 0 0 0 0 0 0 0 0 0 0 0 0 0 0 0 0 0 0 0 0 0 0 0 0 0 0 0 0 0 0 0 0 0 0
0 0 0 0 0 0 0 0 0 0 0 0 0 0 0 0 0 0 0 0 0 0 0 0 0 0 0 0 0 0 0 0 0 0 0 0 0 0 0 0 0 0 0
0 0 0 0 0 0 0 0 0 0 0 0 0 0 0 0 0 0 0 0 0 0 0 0 0 0 0 0 0 0 0 0 0 0 0 0 0 0 0 0 0 0 0
0 0 0 0 0 0 0 0 0 0 0 0 0 0 0 0 0 0 0 0 0 0 0 0 0 0 0 0 0 0 0 0 0 0 0 0 0 0 0 0 0 0 0
Wind_Speed
3 3 2 2 2 2 2 1 1 1 1 2 2 2 2 2 2 2 2 6 7 8 10 10 9 8 6 5 5 5 5 6 5 5 5 4 3 2 1 1 2 3 4
4 3 3 3 2 2 2 2 2 1 1 1 2 2 2 2 3 3 3 4 6 7 9 10 10 8 6 4 4 3 3 5 7 6 6 7 6 5 4 2 1 1 2
5 4 3 3 3 3 3 2 2 1 1 1 2 2 2 3 3 4 3 3 3 5 8 8 7 5 3 3 3 3 3 3 4 6 7 7 8 8 7 6 4 3 1
6 5 4 4 3 3 3 2 2 2 2 2 2 2 2 3 4 4 3 3 3 2 3 4 3 2 2 3 4 5 5 4 3 3 5 7 8 8 9 9 7 6 5
7 5 5 4 4 3 2 2 2 2 2 2 2 3 3 3 3 3 4 4 2 2 1 0 1 2 2 3 4 5 6 5 5 4 4 5 6 8 9 10 10 9 8
7 6 4 4 4 3 2 2 2 2 2 2 2 3 3 3 2 2 3 2 1 0 0 1 2 3 5 5 6 6 6 6 6 6 6 6 6 7 8 9 10 11 11
6 5 4 4 4 3 3 3 2 2 1 1 1 3 3 2 2 2 2 1 1 1 2 3 2 2 3 7 8 8 7 6 6 7 7 6 6 6 7 8 9 11 11
5 5 5 4 4 3 3 2 2 1 1 1 1 1 3 4 3 2 3 3 3 3 4 4 4 4 3 2 5 8 8 7 7 7 7 7 7 7 7 7 8 9 11
5 5 5 4 4 3 3 3 2 3 2 1 1 2 1 2 2 2 3 3 3 3 3 4 5 4 4 3 3 6 8 8 8 8 7 7 7 7 8 7 7 7 8
4 4 5 4 4 3 3 2 2 2 2 2 1 2 2 2 2 2 1 2 4 4 4 3 4 4 4 3 4 7 8 8 9 9 9 8 8 7 7 7 7 7 7
3 4 4 4 3 3 3 2 2 2 2 2 2 1 1 2 3 3 3 1 1 2 3 3 3 3 3 3 3 6 9 9 10 10 10 10 9 9 9 8 7 5 6
3 3 4 4 4 3 3 2 2 2 1 1 1 2 2 2 2 3 3 2 2 1 2 2 2 2 3 3 5 8 9 9 10 11 11 12 11 9 8 8 7 6 4
3 3 4 4 3 3 3 2 2 1 1 1 1 1 1 2 1 2 3 2 2 2 2 1 1 2 2 2 3 7 8 9 10 10 11 12 12 11 8 7 7 6 4
4 4 4 4 4 4 3 2 1 1 1 1 1 1 1 1 1 1 2 2 2 2 2 3 1 1 2 2 4 7 5 9 9 10 11 11 12 12 11 9 8 7 6
4 5 5 5 4 3 3 3 1 1 1 1 1 1 1 0 1 1 1 2 2 3 3 3 2 1 1 2 4 3 3 8 9 9 10 11 12 12 12 11 10 9 8
5 6 5 4 4 3 3 2 2 1 1 1 1 1 1 0 0 0 1 1 1 2 2 2 2 2 2 3 4 3 4 8 9 9 9 11 12 12 13 12 11 10 9
6 6 5 5 4 3 3 2 2 2 2 1 1 1 1 1 0 0 0 0 0 1 2 2 2 2 2 3 2 2 3 4 4 8 9 10 11 11 12 13 13 12 11
4 4 5 4 4 3 3 2 2 2 2 2 2 2 1 1 1 1 1 1 0 0 1 2 2 2 2 2 2 2 3 3 3 7 8 9 9 10 11 11 12 13 13
5 4 4 4 4 3 3 2 2 2 2 2 2 2 2 2 2 1 1 1 0 1 0 2 2 2 2 2 2 2 3 3 3 5 7 8 9 9 9 9 10 11 11
5 5 4 4 4 3 3 2 2 3 2 2 2 2 2 2 2 2 1 1 0 0 1 2 2 2 2 2 2 2 1 2 2 3 5 5 7 9 9 9 9 9 9
5 5 5 4 3 3 3 3 3 3 3 3 3 2 2 3 3 3 2 1 1 1 1 1 2 2 2 2 2 1 1 1 1 2 2 3 3 3 5 7 7 7 7
5 5 5 5 4 3 5 6 5 4 4 4 4 3 2 2 3 4 4 3 2 2 2 2 1 2 2 2 2 2 2 1 0 1 2 2 2 2 3 3 4 5 5
5 5 5 5 4 4 7 7 7 4 4 4 4 4 2 2 4 3 4 6 5 5 2 2 2 2 3 3 4 2 2 2 1 1 1 1 2 1 2 3 5 4 5
5 5 5 5 4 5 8 8 8 4 4 4 4 4 4 3 3 4 3 3 3 3 3 2 2 2 2 3 3 3 3 2 1 1 1 0 1 1 2 3 6 5 5
5 5 5 6 5 5 9 8 8 4 3 3 3 4 4 4 5 6 4 3 2 1 3 5 5 4 5 6 5 4 3 2 1 0 1 1 0 1 1 1 3 6 5
5 6 5 5 6 5 9 10 10 4 4 3 3 3 6 6 7 7 5 4 3 2 1 2 3 4 4 3 4 3 3 3 2 1 0 1 1 1 1 1 1 2 3
Wind_Direction
179 180 183 187 195 191 195 198 210 281 307 307 292 276 285 285 278 269 276 285 283 278 279 282 279 272 264 265 257 253 244 235 229 226 219 213 210 205 166 64 47 38 36
182 182 189 196 207 205 203 200 211 237 269 281 284 274 270 276 271 270 266 281 285 282 280 280 279 280 280 282 285 277 270 256 238 231 227 222 219 216 212 208 196 84 43
187 183 188 202 210 202 201 201 217 218 245 251 266 271 264 265 268 270 269 263 274 280 278 275 273 276 297 317 328 335 339 321 274 247 237 232 228 222 218 213 210 204 185
187 181 189 204 199 184 184 189 192 208 235 243 259 267 263 267 271 270 267 265 264 269 275 271 265 284 346 5 10 15 18 18 350 309 265 248 239 230 223 217 213 210 207
188 182 191 198 183 175 181 187 185 192 223 248 258 265 266 266 273 278 276 273 260 245 238 69 74 67 61 53 51 40 32 26 10 344 324 287 258 243 233 224 218 214 211
189 184 185 186 172 165 173 181 193 196 215 242 270 278 274 276 286 290 288 294 291 251 152 103 75 66 77 83 72 58 44 31 14 358 335 318 289 261 246 235 224 218 214
187 183 181 177 169 171 181 183 180 198 226 202 305 312 310 313 336 342 355 11 24 40 70 80 82 76 69 74 70 63 45 26 8 357 348 329 315 290 262 248 235 224 217
185 182 177 173 169 166 172 178 173 171 195 161 166 325 330 339 357 19 27 39 36 43 58 64 75 77 73 62 63 61 44 26 8 355 345 337 323 309 288 270 249 233 223
181 173 173 169 169 166 174 182 176 180 202 210 183 180 223 272 310 342 32 41 43 45 47 57 67 70 70 64 53 50 44 26 11 360 351 340 329 317 308 290 268 246 230
161 160 161 158 153 150 155 164 161 170 176 207 219 216 212 207 245 302 342 40 51 48 43 54 61 61 60 58 54 51 43 27 14 6 0 352 343 335 322 308 294 265 243
134 136 138 135 134 129 134 139 144 157 172 189 200 212 223 228 224 235 262 277 45 47 47 57 62 60 56 53 49 50 44 31 17 7 3 2 358 351 343 335 318 298 259
113 118 120 118 116 114 116 121 126 145 163 188 206 207 208 218 219 223 245 235 213 132 63 57 64 63 61 54 51 52 43 34 20 12 11 15 9 357 343 338 336 324 289
154 149 127 118 111 107 107 109 113 126 147 193 220 225 229 237 236 231 244 248 211 163 146 89 59 68 76 60 49 49 41 39 27 19 19 21 17 13 3 352 352 351 334
149 141 127 119 117 116 111 111 122 131 129 161 210 226 227 240 244 240 240 238 238 197 178 172 115 85 83 70 63 53 35 42 36 30 29 29 27 24 23 21 18 16 17
133 135 127 124 119 117 117 121 125 124 126 143 187 219 220 241 257 263 253 234 233 232 215 171 158 132 116 91 74 55 37 41 41 38 36 37 34 31 32 34 33 32 34
128 130 126 126 123 118 118 118 121 130 140 159 171 167 157 160 322 322 293 276 253 235 220 140 139 138 131 113 87 65 48 46 36 37 37 38 37 36 37 39 37 36 44
136 138 139 138 133 126 121 120 128 142 157 162 151 156 154 147 137 20 7 350 328 246 207 130 112 121 123 119 91 69 58 45 23 35 38 41 40 37 37 40 42 45 49
127 131 132 130 130 126 122 129 144 157 171 172 167 158 160 139 118 64 57 55 21 324 179 161 135 131 124 129 111 85 57 46 30 28 38 43 42 39 38 41 44 46 50
130 131 133 137 134 131 126 128 151 160 165 171 169 169 169 158 151 123 98 89 14 352 60 142 134 121 110 111 101 80 64 36 30 27 35 38 39 41 42 45 48 50 52
146 146 144 142 141 141 142 146 153 148 144 140 144 153 159 166 166 157 142 128 108 76 82 119 127 122 114 103 107 106 83 38 23 11 20 31 37 41 44 50 50 51 53
155 151 144 142 147 151 162 164 161 157 153 147 138 135 144 154 164 158 149 158 137 134 133 138 139 128 132 133 140 128 124 60 28 18 360 14 18 25 25 26 37 47 53
153 153 156 157 167 178 186 183 170 165 166 165 159 142 129 127 139 131 117 116 126 148 170 157 154 162 158 146 131 130 125 115 302 13 17 2 16 25 4 352 16 41 53
164 166 169 170 181 198 198 194 187 165 168 173 169 162 156 137 109 92 90 74 58 58 99 156 167 178 167 170 148 135 142 148 178 339 26 360 5 7 355 352 12 54 69
173 177 180 183 185 203 203 199 188 159 162 172 174 169 161 151 151 140 123 99 70 43 59 88 137 156 155 151 150 147 145 122 96 46 61 92 350 344 346 346 10 60 70
180 183 181 183 188 205 207 199 170 147 164 174 174 171 169 177 195 171 147 140 114 46 72 109 118 127 138 146 141 114 119 111 138 152 42 116 13 334 332 345 2 27 45
186 181 185 187 189 200 209 203 176 159 170 175 179 191 199 198 210 188 162 164 177 188 128 102 82 73 66 95 132 140 147 140 154 209 208 117 72 29 0 344 1 5 15